FW4072 Weather Reports


time (UTC)temp
C
wind
direction
speed
KPH
gust
KPH
rain 1hr
cm
rain 24hr
cm
rain mn
cm
humidity
%
barometer
mb
20260506164212 23 3.2 6.4 0.00 0.00 0.00 16 1014.2
20260506163311 23 158 1.6 4.8 0.00 0.00 0.00 15 1014.2
20260506162411 23 0.0 3.2 0.00 0.00 0.00 14 1014.1
20260506161512 23 135 1.6 4.8 0.00 0.00 0.00 13 1014.1
20260506160610 24 158 3.2 6.4 0.00 0.00 0.00 12 1014.0
20260506155709 24 113 3.2 6.4 0.00 0.00 0.00 11 1013.9
20260506154828 25 135 0.0 8.0 0.00 0.00 0.00 10 1014.0
20260506153904 25 113 1.6 4.8 0.00 0.00 0.00 1013.9
20260506152101 25 0.0 3.2 0.00 0.00 0.00 1013.9
20260506151201 26 113 1.6 3.2 0.00 0.00 0.00 1013.9
20260506150304 26 0.0 3.2 0.00 0.00 0.00 1013.9
20260506145359 26 113 1.6 3.2 0.00 0.00 0.00 1013.9
20260506144519 26 135 3.2 6.4 0.00 0.00 0.00 1013.9
20260506143600 26 0.0 3.2 0.00 0.00 0.00 1013.9
20260506142657 27 135 1.6 4.8 0.00 0.00 0.00 1013.9
20260506141758 27 158 3.2 8.0 0.00 0.00 0.00 1013.9
20260506140858 29 118 3.2 9.7 0.00 0.00 0.00 1013.9
20260506135050 30 158 1.6 6.4 0.00 0.00 0.00 1013.8
20260506134149 30 158 3.2 8.0 0.00 0.00 0.00 1013.9
20260506133250 30 158 1.6 3.2 0.00 0.00 0.00 1013.9
20260506132348 30 158 1.6 4.8 0.00 0.00 0.00 1013.9
20260506131447 30 135 1.6 3.2 0.00 0.00 0.00 1014.0
20260506130548 30 135 3.2 6.4 0.00 0.00 0.00 1014.2
20260506125638 30 135 4.8 11.3 0.00 0.00 0.00 1014.1
20260506124738 30 158 1.6 6.4 0.00 0.00 0.00 1014.1
20260506123919 30 129 3.2 6.4 0.00 0.00 0.00 1014.4
20260506122036 30 0.0 1.6 0.00 0.00 0.00 1014.3
20260506121135 30 0.0 3.2 0.00 0.00 0.00 1014.6
20260506120255 30 158 1.6 6.4 0.00 0.00 0.00 1014.5
20260506115334 30 135 1.6 3.2 0.00 0.00 0.00 1014.6
20260506114435 31 135 1.6 3.2 0.00 0.00 0.00 1014.7
20260506113532 31 0.0 3.2 0.00 0.00 0.00 1014.7
20260506112632 31 135 3.2 4.8 0.00 0.00 0.00 1014.6
20260506111726 31 135 1.6 3.2 0.00 0.00 0.00 1014.7
20260506110826 31 142 3.2 6.4 0.00 0.00 0.00 1014.9
20260506105026 31 113 3.2 6.4 0.00 0.00 0.00 1015.0
20260506104124 31 135 3.2 6.4 0.00 0.00 0.00 1015.0
20260506103225 30 135 1.6 3.2 0.00 0.00 0.00 1015.0
20260506102323 30 135 1.6 3.2 0.00 0.00 0.00 1015.1
20260506101422 30 135 1.6 3.2 0.00 0.00 0.00 1015.0
20260506100521 30 135 1.6 3.2 0.00 0.00 0.00 1014.9
20260506095620 30 135 1.6 4.8 0.00 0.00 0.00 1015.0
20260506094720 30 135 3.2 6.4 0.00 0.00 0.00 1015.1
20260506093814 30 135 3.2 8.0 0.00 0.00 0.00 1015.3
20260506092913 30 113 3.2 8.0 0.00 0.00 0.00 1015.4
20260506091132 30 135 3.2 8.0 0.00 0.00 0.00 1015.3
20260506090212 29 135 1.6 6.4 0.00 0.00 0.00 1015.3
20260506085313 29 135 1.6 4.8 0.00 0.00 0.00 1015.3
20260506084411 28 135 6.4 9.7 0.00 0.00 0.00 1015.4
20260506083530 28 158 3.2 6.4 0.00 0.00 0.00 1015.2
20260506082629 28 158 3.2 8.0 0.00 0.00 0.00 1015.2
20260506081709 28 158 4.8 11.3 0.00 0.00 0.00 1015.1
20260506080808 27 142 1.6 6.4 0.00 0.00 0.00 1015.2
20260506073221 27 113 3.2 8.0 0.00 0.00 0.00 1015.3
20260506072302 27 113 1.6 3.2 0.00 0.00 0.00 10 1015.3
20260506071401 26 135 1.6 3.2 0.00 0.00 0.00 12 1015.3
20260506070458 25 135 3.2 6.4 0.00 0.00 0.00 13 1015.2
20260506061052 23 0.0 1.6 0.00 0.00 0.00 18 1015.2
20260506060121 23 135 1.6 3.2 0.00 0.00 0.00 20 1015.1
20260506050734 19 135 1.6 3.2 0.00 0.00 0.00 32 1015.1
20260506044911 16 113 1.6 3.2 0.00 0.00 0.00 43 1015.0
20260506043110 15 0.0 0.0 0.00 0.00 0.00 47 1015.0
20260506042211 13 0.0 1.6 0.00 0.00 0.00 51 1014.9
20260506041309 12 0.0 1.6 0.00 0.00 0.00 53 1014.9
20260506040428 12 0.0 1.6 0.00 0.00 0.00 55 1014.9
20260506035502 11 0.0 1.6 0.00 0.00 0.00 55 1015.0
20260506034622 11 0.0 0.0 0.00 0.00 0.00 55 1015.0
20260506033722 11 0.0 1.6 0.00 0.00 0.00 54 1015.0
20260506032800 11 0.0 1.6 0.00 0.00 0.00 54 1014.9
20260506031900 11 0.0 3.2 0.00 0.00 0.00 53 1014.9
20260506030058 11 0.0 3.2 0.00 0.00 0.00 54 1014.7
20260506025158 10 0.0 3.2 0.00 0.00 0.00 55 1014.6
20260506024257 10 0.0 3.2 0.00 0.00 0.00 55 1014.6
20260506023356 10 0.0 1.6 0.00 0.00 0.00 54 1014.6
20260506022456 10 0.0 1.6 0.00 0.00 0.00 54 1014.7
20260506021550 11 0.0 1.6 0.00 0.00 0.00 54 1014.5
20260506020649 10 0.0 1.6 0.00 0.00 0.00 54 1014.6
20260506015748 10 0.0 3.2 0.00 0.00 0.00 54 1014.5
20260506014908 10 0.0 0.0 0.00 0.00 0.00 54 1014.6
20260506013047 11 0.0 0.0 0.00 0.00 0.00 53 1014.6
20260506012208 11 0.0 1.6 0.00 0.00 0.00 52 1014.7
20260506011238 11 0.0 1.6 0.00 0.00 0.00 51 1014.8
20260506010339 11 0.0 0.0 0.00 0.00 0.00 50 1014.9
20260506005437 12 0.0 0.0 0.00 0.00 0.00 48 1014.8
20260506004556 12 0.0 1.6 0.00 0.00 0.00 48 1014.7
20260506003636 12 0.0 1.6 0.00 0.00 0.00 48 1014.8
20260506002737 12 113 1.6 4.8 0.00 0.00 0.00 49 1014.8
20260506001836 12 0.0 3.2 0.00 0.00 0.00 49 1014.9
20260506000034 12 0.0 3.2 0.00 0.00 0.00 49 1014.9
20260505235153 12 0.0 1.6 0.00 0.00 0.00 49 1014.8
20260505234232 12 0.0 1.6 0.00 0.00 0.00 49 1015.0
20260505233326 12 0.0 3.2 0.00 0.00 0.00 49 1015.0
20260505232427 12 0.0 1.6 0.00 0.00 0.00 48 1015.0
20260505231525 12 0.0 3.2 0.00 0.00 0.00 48 1015.0
20260505230624 12 0.0 1.6 0.00 0.00 0.00 49 1015.0
20260505225724 12 0.0 3.2 0.00 0.00 0.00 49 1015.2
20260505224823 13 0.0 3.2 0.00 0.00 0.00 50 1015.2
20260505223022 13 0.0 3.2 0.00 0.00 0.00 51 1015.2
20260505222121 13 0.0 3.2 0.00 0.00 0.00 51 1015.1
20260505221221 13 0.0 1.6 0.00 0.00 0.00 51 1015.3
20260505220320 13 0.0 3.2 0.00 0.00 0.00 52 1015.3
20260505215414 13 135 1.6 3.2 0.00 0.00 0.00 52 1015.4
20260505214514 13 135 1.6 3.2 0.00 0.00 0.00 51 1015.2
20260505213635 14 0.0 1.6 0.00 0.00 0.00 50 1015.3
20260505212713 14 0.0 3.2 0.00 0.00 0.00 50 1015.2
20260505211812 14 135 0.0 4.8 0.00 0.00 0.00 50 1015.2
20260505210911 15 135 1.6 3.2 0.00 0.00 0.00 48 1015.1
20260505205110 15 0.0 0.0 0.00 0.00 0.00 47 1015.1
20260505204211 15 0.0 1.6 0.00 0.00 0.00 47 1015.2
20260505203329 15 0.0 3.2 0.00 0.00 0.00 45 1015.1
20260505202408 15 0.0 3.2 0.00 0.00 0.00 44 1015.1
20260505201502 15 0.0 3.2 0.00 0.00 0.00 43 1014.9
20260505200622 15 0.0 3.2 0.00 0.00 0.00 42 1014.9
20260505195721 16 0.0 1.6 0.00 0.00 0.00 41 1014.9
20260505194800 16 135 1.6 3.2 0.00 0.00 0.00 39 1014.8
20260505193900 16 142 1.6 3.2 0.00 0.00 0.00 38 1014.6
20260505192059 16 0.0 1.6 0.00 0.00 0.00 36 1014.5
20260505191158 17 0.0 1.6 0.00 0.00 0.00 35 1014.4
20260505190257 17 158 1.6 4.8 0.00 0.00 0.00 34 1014.5
20260505185356 17 0.0 1.6 0.00 0.00 0.00 34 1014.3
20260505184456 17 0.0 6.4 0.00 0.00 0.00 33 1014.4
20260505183550 17 135 1.6 3.2 0.00 0.00 0.00 32 1014.3
20260505182649 18 135 1.6 3.2 0.00 0.00 0.00 31 1014.2
20260505181748 18 135 1.6 3.2 0.00 0.00 0.00 30 1014.2
20260505180848 19 119 1.6 4.8 0.00 0.00 0.00 28 1014.0
20260505175046 19 158 1.6 3.2 0.00 0.00 0.00 27 1013.7
20260505173106 21 0.0 3.2 0.00 0.00 0.00 22 1013.7
20260505172221 21 113 1.6 6.4 0.00 0.00 0.00 20 1013.4
20260505171300 21 158 3.2 8.0 0.00 0.00 0.00 17 1013.5
20260505170359 22 135 3.2 6.4 0.00 0.00 0.00 12 1013.3
20260505165459 22 0.0 3.2 0.00 0.00 0.00 10 1013.3
20260505164558 22 0.0 1.6 0.00 0.00 0.00 1013.3